#timestamp,LO_Frequency,Hit,StdDev 
1511852415.0,286046993.4,N
1511852415.9,286046993.4,N
1511852435.7,286046995.7,N
1511852455.6,286046997.8,N
1511852475.4,286046994.3,N
1511852495.2,286046994.5,N
1511852515.1,286046992.9,N
1511852516.0,286046992.9,N
1511852535.8,286046992.5,N
1511852555.6,286046989.1,Y
1511852575.5,286046993.2,P
1511852595.3,286046992.9,P
1511852615.1,286046993.1,P
1511852635.9,286046992.6,Y
1511852655.7,286046998.1,P
1511852675.5,286047000.7,N
1511852695.4,286047002.1,N
1511852715.2,286047005.9,N
1511852735.0,286047006.3,N
1511852735.9,286047006.3,N
1511852755.8,286047006.7,N
1511852775.6,286047006.5,N
1511852795.4,286047012.2,N
1511852815.3,286047011.9,N
1511852835.1,286047012.3,N
1511852836.0,286047012.3,N
1511852855.8,286047011.6,N
1511852875.6,286047014.9,N
1511852895.5,286047016.5,N
1511852915.3,286047017.8,N
1511852935.1,286047021.4,Y
1511852955.9,286047009.9,P
1511852975.7,286047011.9,P
1511852995.5,286047009.3,P
1511853015.4,286047013.6,Y
1511853035.2,286047007.6,P
1511853055.0,286047007.2,P
1511853055.9,286047007.2,P
1511853075.8,286047011.1,Y
1511853095.6,286047005.4,P
1511853115.4,286047008.3,P
1511853135.3,286047007.7,P
1511853155.1,286047009.1,Y
1511853175.9,286047002.5,P
1511853195.7,286047000.7,N
1511853215.5,286047000.7,N
1511853235.3,286047000.6,N
1511853255.2,286047002.5,N
1511853275.0,286047002.8,N
1511853275.9,286047002.8,N
1511853295.7,286047000.3,N
1511853315.6,286047000.9,N
1511853335.4,286047002.4,N
1511853355.2,286046999.1,N
1511853375.1,286046997.2,N
1511853376.0,286046997.2,N
1511853395.8,286046998.6,N
1511853415.6,286047002.5,N
1511853435.5,286047000.9,N
1511853455.3,286047001.4,N
1511853475.1,286047004.5,N
1511853495.8,286047007.0,N
1511853515.7,286047009.1,Y
1511853535.5,286047004.9,P
1511853555.3,286047006.6,P
1511853575.2,286047005.1,N
1511853595.0,286047004.0,N
1511853595.9,286047004.0,N
1511853615.7,286047001.7,N
1511853635.6,286047007.4,Y
1511853655.4,286047003.9,P
1511853675.2,286047005.8,P
1511853695.1,286047009.6,P
1511853696.0,286047009.6,Y
1511853715.8,286047005.9,P
1511853735.6,286047003.7,P
1511853755.5,286047003.8,P
1511853775.3,286047004.8,Y
1511853795.1,286047001.8,P
1511853815.9,286047002.4,N
1511853835.7,286047002.3,N
1511853855.5,286047000.7,N
1511853875.4,286046996.8,N
1511853895.2,286046997.6,N
1511853915.0,286046996.1,N
1511853915.9,286046996.1,N
1511853935.8,286046991.9,N
1511853955.6,286046991.0,N
1511853975.4,286046986.4,Y
1511853995.3,286046985.0,P
1511854015.1,286046982.7,N
1511854035.8,286046979.1,P
1511854055.7,286046978.0,Y
1511854075.5,286046992.3,P
1511854095.3,286046991.6,N
1511854115.2,286046989.9,P
1511854135.9,286046990.7,Y
1511854155.7,286047000.7,P
1511854175.6,286047000.1,N
1511854195.4,286047003.1,N
1511854215.2,286047003.6,N
1511854235.1,286047003.8,N
1511854236.0,286047003.8,N
1511854255.8,286046999.9,N
1511854275.6,286046999.7,N
1511854295.5,286047001.2,N
1511854315.3,286046999.5,N
1511854335.1,286046997.3,N
1511854355.8,286046999.1,N
1511854375.7,286046999.1,N
1511854395.5,286046995.9,N
1511854415.3,286046990.8,N
1511854435.2,286046988.8,N
1511854455.0,286046989.0,N
1511854455.9,286046989.0,N
1511854475.7,286046985.5,N
1511854495.6,286046991.0,N
1511854515.4,286046994.5,N
1511854535.2,286046995.7,N
1511854555.1,286046998.1,N
1511854556.0,286046998.1,N
1511854575.8,286046998.4,N
1511854595.6,286046997.2,N
1511854615.5,286046996.4,N
1511854635.3,286046997.8,N
1511854655.2,286046995.2,N
1511854675.9,286046996.0,N
1511854695.7,286046993.9,N
1511854715.5,286046989.2,N
1511854735.4,286046986.9,N
1511854755.2,286046986.9,N
1511854775.0,286046987.0,N
1511854775.9,286046987.0,N
1511854795.8,286046984.4,Y
1511854815.6,286046991.4,P
1511854835.4,286046995.7,P
1511854855.3,286046997.0,N
1511854875.1,286047000.2,N
1511854895.8,286047007.4,N
1511854915.7,286047004.8,N
1511854935.5,286047002.8,N
1511854955.3,286046999.7,N
1511854975.2,286047004.9,N
1511854995.9,286047007.3,N
1511855015.7,286047007.5,N
1511855035.6,286047006.7,N
1511855055.4,286047007.4,N
1511855075.2,286047006.8,N
1511855095.0,286047003.0,N
1511855095.9,286047003.0,N
1511855115.8,286047001.8,N
1511855135.6,286047005.9,N
1511855155.4,286047005.4,N
1511855175.3,286047004.7,N
1511855195.1,286047003.4,N
1511855215.8,286047005.0,N
1511855235.7,286047004.7,N
1511855255.5,286047004.7,N
1511855275.3,286047003.5,N
1511855295.2,286047007.1,N
1511855315.9,286047003.7,N
1511855335.7,286047004.4,N
1511855355.6,286047004.5,N
1511855375.4,286047005.6,N
1511855395.2,286047005.4,N
1511855415.0,286047005.2,N
1511855415.9,286047005.2,N
1511855435.8,286047006.4,Y
1511855455.6,286047003.3,P
1511855475.4,286046999.8,N
1511855495.3,286046999.0,N
1511855515.1,286047001.0,N
1511855535.8,286047000.4,N
1511855555.7,286047002.3,N
1511855575.5,286047005.4,N
1511855595.3,286047005.2,N
1511855615.2,286047004.4,N
1511855635.9,286047004.4,N
1511855655.7,286047002.4,N
1511855675.6,286047006.0,N
1511855695.4,286047001.4,N
1511855715.2,286047003.0,N
1511855735.0,286047001.6,N
1511855736.0,286047001.6,N
1511855755.8,286047002.1,N
1511855775.6,286047005.2,N
1511855795.4,286047003.7,N
1511855815.3,286047004.5,N
1511855835.1,286047005.0,N
1511855855.8,286047005.9,Y
1511855875.7,286047000.7,P
1511855895.5,286047001.6,N
1511855915.3,286047003.4,P
1511855935.2,286047003.2,N
1511855955.0,286047004.2,Y
1511855955.9,286047004.2,P
1511855975.7,286046999.5,N
1511855995.6,286046999.2,N
